Location: Cisewo
(53.3833°N, 14.9000°E)
Time: 10:55:20
(UTC+00:00)

Spot 2 Rocket - Pass Details

Date: 18 April 2021
Orbit: 756 x 773 km, 98.5° (Epoch: 14 May)

Event Time Altitude Azimuth Distance (km) Brightness Sun altitude
Exits shadow 19:41:31 18° 146° (SE) 1,839 4.9 -13.0°
Maximum altitude 19:45:19 63° 69° (ENE) 861 3.6 -13.4°
Drops below altitude 10° 19:50:21 10° 350° (N) 2,313 6.8 -14.0°
Sets 19:52:40 0° 347° (NNW) 3,241 7.7 -14.3°
